EN

Hourly Weather La Grande Motte

Today, 1 August, Sunday

Time Temperature Precipitation Wind Pressure Humidity
00:00 +17°C° 0 mm 7 mps 758 mmHg 75%
01:00 +17°C° 0 mm 6 mps 758 mmHg 75%
02:00 +17°C° 0 mm 6 mps 757 mmHg 75%
03:00 +16°C° 0 mm 6 mps 757 mmHg 75%
04:00 +17°C° 0 mm 6 mps 757 mmHg 73%
05:00 +17°C° 0 mm 6 mps 758 mmHg 70%
06:00 +17°C° 0 mm 6 mps 758 mmHg 68%
07:00 +20°C° 0 mm 7 mps 758 mmHg 60%
08:00 +22°C° 0 mm 7 mps 758 mmHg 51%
09:00 +24°C° 0 mm 7 mps 758 mmHg 43%
10:00 +26°C° 0 mm 7 mps 758 mmHg 39%
11:00 +28°C° 0 mm 7 mps 758 mmHg 34%
12:00 +29°C° 0 mm 6 mps 758 mmHg 30%
13:00 +29°C° 0 mm 7 mps 758 mmHg 29%
14:00 +29°C° 0 mm 7 mps 757 mmHg 29%
15:00 +30°C° 0 mm 7 mps 757 mmHg 28%
16:00 +29°C° 0 mm 7 mps 757 mmHg 31%
17:00 +28°C° 0 mm 7 mps 758 mmHg 34%
18:00 +27°C° 0 mm 7 mps 758 mmHg 38%
19:00 +24°C° 0 mm 7 mps 759 mmHg 42%
20:00 +23°C° 0 mm 7 mps 759 mmHg 47%
21:00 +21°C° 0 mm 6 mps 760 mmHg 52%
22:00 +20°C° 0 mm 6 mps 760 mmHg 55%
23:00 +20°C° 0 mm 5 mps 760 mmHg 58%

Tomorrow, 2 August, Monday

Time Temperature Precipitation Wind Pressure Humidity
00:00 +19°C° 0 mm 4 mps 760 mmHg 61%
01:00 +18°C° 0 mm 4 mps 760 mmHg 63%
02:00 +18°C° 0 mm 4 mps 760 mmHg 65%
03:00 +17°C° 0 mm 4 mps 760 mmHg 67%
04:00 +18°C° 0 mm 4 mps 760 mmHg 64%
05:00 +18°C° 0 mm 4 mps 761 mmHg 62%
06:00 +19°C° 0 mm 3 mps 761 mmHg 59%
07:00 +21°C° 0 mm 3 mps 761 mmHg 51%
08:00 +24°C° 0 mm 3 mps 761 mmHg 43%
09:00 +27°C° 0 mm 2 mps 761 mmHg 35%
10:00 +28°C° 0 mm 3 mps 761 mmHg 32%
11:00 +29°C° 0 mm 3 mps 761 mmHg 29%
12:00 +32°C° 0 mm 4 mps 760 mmHg 26%
13:00 +32°C° 0 mm 4 mps 760 mmHg 26%
14:00 +32°C° 0 mm 4 mps 760 mmHg 26%
15:00 +33°C° 0 mm 5 mps 759 mmHg 26%
16:00 +30°C° 0 mm 5 mps 759 mmHg 30%
17:00 +29°C° 0 mm 5 mps 759 mmHg 35%
18:00 +28°C° 0 mm 6 mps 759 mmHg 40%
19:00 +26°C° 0 mm 5 mps 760 mmHg 47%
20:00 +25°C° 0 mm 5 mps 760 mmHg 54%
21:00 +22°C° 0 mm 5 mps 760 mmHg 61%
22:00 +22°C° 0 mm 4 mps 760 mmHg 60%
23:00 +21°C° 0 mm 3 mps 760 mmHg 58%

Day after tomorrow, 3 August, Tuesday

Time Temperature Precipitation Wind Pressure Humidity
00:00 +21°C° 0 mm 2 mps 760 mmHg 57%
01:00 +20°C° 0 mm 2 mps 760 mmHg 58%
02:00 +20°C° 0 mm 2 mps 760 mmHg 58%
03:00 +20°C° 0 mm 2 mps 760 mmHg 59%
04:00 +20°C° 0 mm 2 mps 760 mmHg 57%
05:00 +21°C° 0 mm 3 mps 760 mmHg 55%
06:00 +21°C° 0 mm 3 mps 760 mmHg 53%
07:00 +24°C° 0 mm 2 mps 760 mmHg 48%
08:00 +26°C° 0 mm 1 mps 760 mmHg 42%
09:00 +28°C° 0 mm 1 mps 760 mmHg 37%
10:00 +29°C° 0 mm 2 mps 760 mmHg 34%
11:00 +31°C° 0 mm 2 mps 760 mmHg 32%
12:00 +33°C° 0 mm 3 mps 760 mmHg 30%
13:00 +33°C° 0 mm 3 mps 759 mmHg 31%
14:00 +32°C° 0 mm 4 mps 759 mmHg 32%
15:00 +32°C° 0 mm 4 mps 758 mmHg 33%
16:00 +30°C° 0 mm 4 mps 758 mmHg 40%
17:00 +28°C° 0 mm 4 mps 758 mmHg 48%
18:00 +26°C° 0 mm 4 mps 758 mmHg 55%
19:00 +26°C° 0 mm 3 mps 758 mmHg 56%
20:00 +25°C° 0 mm 2 mps 759 mmHg 58%
21:00 +25°C° 0 mm 1 mps 759 mmHg 59%
22:00 +25°C° 0 mm 1 mps 759 mmHg 61%
23:00 +24°C° 0 mm 1 mps 759 mmHg 63%

4 August, Wednesday

Time Temperature Precipitation Wind Pressure Humidity
00:00 +24°C° 0 mm 2 mps 759 mmHg 66%
01:00 +23°C° 0.1 mm 2 mps 759 mmHg 72%
02:00 +22°C° 0.1 mm 3 mps 759 mmHg 78%
03:00 +21°C° 0.1 mm 4 mps 759 mmHg 84%
04:00 +21°C° 0.4 mm 3 mps 759 mmHg 86%
05:00 +20°C° 0.4 mm 3 mps 760 mmHg 88%
06:00 +20°C° 0.4 mm 2 mps 760 mmHg 90%
07:00 +22°C° 0 mm 3 mps 760 mmHg 80%
08:00 +24°C° 0 mm 3 mps 760 mmHg 70%
09:00 +25°C° 0 mm 4 mps 761 mmHg 60%
10:00 +27°C° 0 mm 4 mps 760 mmHg 53%
11:00 +28°C° 0 mm 4 mps 760 mmHg 46%
12:00 +30°C° 0 mm 3 mps 760 mmHg 40%
13:00 +30°C° 0 mm 3 mps 760 mmHg 38%
14:00 +32°C° 0 mm 4 mps 759 mmHg 35%
15:00 +33°C° 0 mm 4 mps 759 mmHg 33%
16:00 +30°C° 0 mm 5 mps 759 mmHg 37%
17:00 +29°C° 0 mm 6 mps 759 mmHg 41%
18:00 +28°C° 0 mm 6 mps 760 mmHg 45%
19:00 +26°C° 0 mm 6 mps 760 mmHg 50%
20:00 +24°C° 0 mm 6 mps 761 mmHg 55%
21:00 +22°C° 0 mm 5 mps 761 mmHg 59%
22:00 +22°C° 0 mm 5 mps 761 mmHg 61%
23:00 +21°C° 0 mm 5 mps 761 mmHg 64%

5 August, Thursday

Time Temperature Precipitation Wind Pressure Humidity
00:00 +21°C° 0 mm 5 mps 761 mmHg 66%
01:00 +20°C° 0 mm 6 mps 761 mmHg 67%
02:00 +20°C° 0 mm 6 mps 761 mmHg 69%
03:00 +19°C° 0 mm 6 mps 761 mmHg 70%
04:00 +19°C° 0 mm 6 mps 761 mmHg 68%
05:00 +20°C° 0 mm 6 mps 761 mmHg 65%
06:00 +20°C° 0 mm 6 mps 761 mmHg 62%
07:00 +21°C° 0 mm 6 mps 761 mmHg 58%
08:00 +22°C° 0 mm 6 mps 761 mmHg 54%
09:00 +22°C° 0 mm 5 mps 761 mmHg 50%
10:00 +25°C° 0 mm 5 mps 761 mmHg 44%
11:00 +27°C° 0 mm 5 mps 761 mmHg 39%
12:00 +29°C° 0 mm 5 mps 760 mmHg 33%
13:00 +30°C° 0 mm 6 mps 760 mmHg 33%
14:00 +30°C° 0 mm 6 mps 760 mmHg 34%
15:00 +32°C° 0 mm 6 mps 759 mmHg 34%
16:00 +30°C° 0 mm 6 mps 759 mmHg 37%
17:00 +29°C° 0 mm 6 mps 759 mmHg 40%
18:00 +28°C° 0 mm 7 mps 759 mmHg 43%
19:00 +27°C° 0 mm 6 mps 759 mmHg 49%
20:00 +25°C° 0 mm 4 mps 760 mmHg 54%
21:00 +24°C° 0 mm 3 mps 760 mmHg 59%
22:00 +22°C° 0 mm 3 mps 760 mmHg 63%
23:00 +21°C° 0 mm 3 mps 760 mmHg 66%

6 August, Friday

Time Temperature Precipitation Wind Pressure Humidity
00:00 +21°C° 0 mm 3 mps 759 mmHg 69%
01:00 +20°C° 0 mm 3 mps 759 mmHg 71%
02:00 +20°C° 0 mm 3 mps 759 mmHg 73%
03:00 +20°C° 0 mm 4 mps 759 mmHg 75%
04:00 +20°C° 0 mm 3 mps 759 mmHg 72%
05:00 +21°C° 0 mm 3 mps 759 mmHg 70%
06:00 +21°C° 0 mm 3 mps 759 mmHg 67%
07:00 +24°C° 0 mm 2 mps 759 mmHg 60%
08:00 +26°C° 0 mm 2 mps 759 mmHg 52%
09:00 +28°C° 0 mm 2 mps 758 mmHg 44%
10:00 +30°C° 0 mm 3 mps 758 mmHg 41%
11:00 +32°C° 0 mm 4 mps 758 mmHg 39%
12:00 +33°C° 0 mm 5 mps 758 mmHg 36%
13:00 +33°C° 0 mm 5 mps 757 mmHg 39%
14:00 +32°C° 0 mm 6 mps 757 mmHg 41%
15:00 +32°C° 0 mm 6 mps 756 mmHg 44%
16:00 +29°C° 0 mm 5 mps 756 mmHg 50%
17:00 +28°C° 0 mm 5 mps 756 mmHg 57%
18:00 +27°C° 0 mm 4 mps 756 mmHg 63%
19:00 +26°C° 0 mm 3 mps 756 mmHg 71%
20:00 +24°C° 0 mm 3 mps 756 mmHg 80%
21:00 +23°C° 0 mm 2 mps 756 mmHg 89%
22:00 +23°C° 0.1 mm 2 mps 756 mmHg 89%
23:00 +23°C° 0.1 mm 1 mps 756 mmHg 89%
Show more